Crane Lake, MN

3:47 AM CDT on October 21, 2019 (GMT -0500)
Crane Lake

Weather History for KCDD - September, 2019

Change the Weather History Date:

Wednesday, September 18, 2019

  Actual Average Record
Temperature  
Mean Temperature 68 °F -  
Max Temperature 73 °F 63 °F 84 °F (2000)
Min Temperature 62 °F 43 °F 23 °F (2012)
Cooling Degree Days 2    
Growing Degree Days 18 (Base 50)    
Moisture  
Dew Point 65 °F    
Average Humidity 86    
Maximum Humidity 100    
Minimum Humidity 64    
Precipitation  
Precipitation 0.00 in - - ()
Sea Level Pressure  
Sea Level Pressure 29.78 in    
Wind  
Wind Speed 8 mph (South)    
Max Wind Speed 14 mph    
Max Gust Speed 24 mph    
Visibility 10 miles    
Events Rain , Thunderstorm    
Averages and records for this station are not official NWS values.
T = Trace of Precipitation, MM = Missing Value Source: NWS Daily Summary

Daily Weather History Graph

Daily Weather History Graph

Search for Another Location

Airport or City:

Astronomy

Sep. 18, 2019 Rise Set
Actual Time 6:50 AM CDT 7:16 PM CDT
Civil Twilight 6:19 AM CDT 7:47 PM CDT
Nautical Twilight 5:42 AM CDT 8:24 PM CDT
Astronomical Twilight 5:03 AM CDT 9:03 PM CDT
Moon 9:31 PM CDT (9/18) 11:11 AM CDT (9/18)
Length of Visible Light 13h 28m
Length of Day
12h 25m
Waning Gibbous, 82% of the Moon is Illuminated
Sep 18
Waning Gibbous
Sep 21
Last Quarter
Sep 28
New
Oct 5
First Quarter
Oct 13
Full

Hourly Weather History & Observations

Time (CDT) Temp. Dew Point Humidity Pressure Visibility Wind Dir Wind Speed Gust Speed Precip Events Conditions
12:04 AM 69.8 °F 66.2 °F 88% 29.81 in 10.0 mi South 6.9 mph - N/A   Clear
12:25 AM 69.8 °F 66.2 °F 88% 29.80 in 10.0 mi SSE 4.6 mph - N/A   Clear
12:44 AM 69.8 °F 66.2 °F 88% 29.80 in 10.0 mi South 10.4 mph 16.1 mph N/A   Clear
1:04 AM 69.8 °F 68.0 °F 94% 29.80 in 10.0 mi South 9.2 mph - N/A   Clear
1:24 AM 69.8 °F 66.2 °F 88% 29.80 in 10.0 mi South 9.2 mph - N/A   Clear
1:45 AM 69.8 °F 68.0 °F 94% 29.80 in 10.0 mi South 8.1 mph 16.1 mph N/A   Clear
2:04 AM 69.8 °F 68.0 °F 94% 29.80 in 10.0 mi South 6.9 mph - N/A   Clear
2:24 AM 69.8 °F 68.0 °F 94% 29.79 in 10.0 mi South 8.1 mph - N/A   Clear
2:44 AM 69.8 °F 66.2 °F 88% 29.79 in 10.0 mi South 6.9 mph 19.6 mph N/A   Clear
3:05 AM 69.8 °F 66.2 °F 88% 29.78 in 10.0 mi South 10.4 mph 16.1 mph N/A   Clear
3:24 AM 69.8 °F 66.2 °F 88% 29.78 in 10.0 mi South 9.2 mph 17.3 mph N/A   Clear
3:44 AM 69.8 °F 66.2 °F 88% 29.78 in 10.0 mi South 9.2 mph 17.3 mph N/A   Clear
4:04 AM 69.8 °F 66.2 °F 88% 29.78 in 10.0 mi South 8.1 mph - N/A   Clear
4:24 AM 69.8 °F 66.2 °F 88% 29.78 in 10.0 mi SSE 4.6 mph - N/A   Clear
4:44 AM 69.8 °F 66.2 °F 88% 29.78 in 10.0 mi South 9.2 mph - N/A   Clear
5:04 AM 69.8 °F 66.2 °F 88% 29.77 in 10.0 mi South 9.2 mph - N/A   Scattered Clouds
5:24 AM 69.8 °F 66.2 °F 88% 29.78 in 10.0 mi South 10.4 mph 17.3 mph N/A   Overcast
5:43 AM 69.8 °F 66.2 °F 88% 29.79 in 10.0 mi South 8.1 mph - N/A Thunderstorm Thunderstorm
6:03 AM 69.8 °F 66.2 °F 88% 29.79 in 3.0 mi SSE 6.9 mph 20.7 mph N/A   Overcast
6:24 AM 68.0 °F 66.2 °F 94% 29.80 in 7.0 mi South 6.9 mph - N/A Thunderstorm Overcast
6:44 AM 68.0 °F 66.2 °F 94% 29.80 in 4.0 mi South 9.2 mph - N/A Rain Rain
7:04 AM 66.2 °F 66.2 °F 100% 29.80 in 7.0 mi South 8.1 mph 18.4 mph N/A Rain Rain
7:24 AM 66.2 °F 66.2 °F 100% 29.79 in 5.0 mi SSE 9.2 mph 17.3 mph N/A Rain Rain
7:44 AM 66.2 °F 66.2 °F 100% 29.78 in 7.0 mi South 8.1 mph - N/A Rain Light Rain
8:03 AM 66.2 °F 64.4 °F 94% 29.80 in 10.0 mi South 5.8 mph - N/A Rain Light Rain
8:24 AM 66.2 °F 66.2 °F 100% 29.79 in 10.0 mi South 5.8 mph - N/A   Clear
8:44 AM 66.2 °F 66.2 °F 100% 29.78 in 10.0 mi SSE 9.2 mph 16.1 mph N/A   Clear
9:04 AM 66.2 °F 64.4 °F 94% 29.78 in 10.0 mi South 9.2 mph 18.4 mph N/A   Scattered Clouds
9:24 AM 66.2 °F 66.2 °F 100% 29.79 in 10.0 mi South 8.1 mph 17.3 mph N/A   Clear
9:43 AM 68.0 °F 66.2 °F 94% 29.79 in 10.0 mi South 9.2 mph 23.0 mph N/A   Clear
10:04 AM 69.8 °F 66.2 °F 88% 29.78 in 10.0 mi South 8.1 mph 20.7 mph N/A   Scattered Clouds
10:24 AM 69.8 °F 66.2 °F 88% 29.78 in 10.0 mi South 10.4 mph 17.3 mph N/A   Mostly Cloudy
10:44 AM 71.6 °F 66.2 °F 83% 29.76 in 10.0 mi South 11.5 mph 19.6 mph N/A   Scattered Clouds
11:03 AM 71.6 °F 66.2 °F 83% 29.76 in 10.0 mi SSE 9.2 mph 23.0 mph N/A   Clear
11:24 AM 71.6 °F 66.2 °F 83% 29.76 in 10.0 mi South 8.1 mph 21.9 mph N/A   Mostly Cloudy
11:43 AM 73.4 °F 66.2 °F 78% 29.75 in 10.0 mi South 13.8 mph 24.2 mph N/A   Mostly Cloudy
12:04 PM 71.6 °F 66.2 °F 83% 29.75 in 10.0 mi South 10.4 mph 20.7 mph N/A   Overcast
12:24 PM 71.6 °F 66.2 °F 83% 29.74 in 10.0 mi South 13.8 mph 23.0 mph N/A   Overcast
12:44 PM 71.6 °F 66.2 °F 83% 29.74 in 10.0 mi South 13.8 mph 23.0 mph N/A   Overcast
1:03 PM 71.6 °F 66.2 °F 83% 29.74 in 10.0 mi South 8.1 mph 18.4 mph N/A   Overcast
1:24 PM 71.6 °F 66.2 °F 83% 29.75 in 10.0 mi South 9.2 mph 18.4 mph N/A   Overcast
1:44 PM 71.6 °F 66.2 °F 83% 29.75 in 10.0 mi South 9.2 mph 20.7 mph N/A   Overcast
2:04 PM 71.6 °F 66.2 °F 83% 29.75 in 10.0 mi South 5.8 mph 20.7 mph N/A   Overcast
2:23 PM 71.6 °F 68.0 °F 88% 29.74 in 10.0 mi South 8.1 mph - N/A   Overcast
2:43 PM 71.6 °F 68.0 °F 88% 29.74 in 10.0 mi South 5.8 mph - N/A   Overcast
3:03 PM 71.6 °F 66.2 °F 83% 29.73 in 10.0 mi South 9.2 mph - N/A   Overcast
3:23 PM 73.4 °F 68.0 °F 83% 29.72 in 10.0 mi South 8.1 mph 17.3 mph N/A   Overcast
3:44 PM 71.6 °F 66.2 °F 83% 29.73 in 10.0 mi South 8.1 mph 18.4 mph N/A   Overcast
4:03 PM 71.6 °F 66.2 °F 83% 29.74 in 10.0 mi South 9.2 mph - N/A   Overcast
4:24 PM 71.6 °F 68.0 °F 88% 29.73 in 10.0 mi SSE 6.9 mph - N/A   Mostly Cloudy
4:44 PM 71.6 °F 68.0 °F 88% 29.73 in 10.0 mi South 11.5 mph 20.7 mph N/A   Mostly Cloudy
5:03 PM 73.4 °F 66.2 °F 78% 29.73 in 10.0 mi South 9.2 mph 18.4 mph N/A   Mostly Cloudy
5:23 PM 73.4 °F 66.2 °F 78% 29.73 in 10.0 mi South 6.9 mph - N/A   Scattered Clouds
5:43 PM 73.4 °F 68.0 °F 83% 29.74 in 10.0 mi Calm Calm - N/A   Scattered Clouds
6:03 PM 73.4 °F 66.2 °F 78% 29.75 in 10.0 mi SSW 5.8 mph - N/A   Scattered Clouds
6:24 PM 73.4 °F 64.4 °F 73% 29.75 in 10.0 mi SSW 6.9 mph - N/A   Scattered Clouds
6:44 PM 71.6 °F 59.0 °F 64% 29.77 in 10.0 mi SW 8.1 mph 19.6 mph N/A   Clear
7:04 PM 69.8 °F 57.2 °F 64% 29.78 in 10.0 mi SW 4.6 mph - N/A   Clear
7:23 PM 68.0 °F 57.2 °F 68% 29.79 in 10.0 mi SSW 5.8 mph - N/A   Clear
7:44 PM 66.2 °F 57.2 °F 73% 29.80 in 10.0 mi South 3.5 mph - N/A   Clear
8:04 PM 66.2 °F 59.0 °F 78% 29.80 in 10.0 mi South 3.5 mph - N/A   Clear
8:24 PM 66.2 °F 59.0 °F 78% 29.80 in 10.0 mi South 3.5 mph - N/A   Clear
8:44 PM 66.2 °F 59.0 °F 78% 29.81 in 10.0 mi South 3.5 mph - N/A   Clear
9:04 PM 64.4 °F 59.0 °F 83% 29.81 in 10.0 mi South 4.6 mph - N/A   Clear
9:24 PM 64.4 °F 59.0 °F 83% 29.82 in 10.0 mi South 3.5 mph - N/A   Clear
9:43 PM 64.4 °F 59.0 °F 83% 29.82 in 10.0 mi South 4.6 mph - N/A   Clear
10:03 PM 64.4 °F 59.0 °F 83% 29.83 in 10.0 mi SSW 4.6 mph - N/A   Clear
10:23 PM 64.4 °F 60.8 °F 88% 29.83 in 10.0 mi South 4.6 mph - N/A   Clear
10:44 PM 64.4 °F 60.8 °F 88% 29.83 in 10.0 mi South 3.5 mph - N/A   Clear
11:03 PM 62.6 °F 60.8 °F 94% 29.84 in 10.0 mi South 4.6 mph - N/A   Clear
11:24 PM 62.6 °F 59.0 °F 88% 29.84 in 10.0 mi South 3.5 mph - N/A   Clear
11:44 PM 62.6 °F 60.8 °F 94% 29.84 in 10.0 mi South 4.6 mph - N/A   Clear